Weather History for KCAD - August, 2013

Change the Weather History Date:

Monday, August 26, 2013

  Actual Average Record
Temperature  
Mean Temperature 78 °F -  
Max Temperature 89 °F 76 °F 92 °F (1948)
Min Temperature 66 °F 53 °F 35 °F (2008)
Cooling Degree Days 13    
Growing Degree Days 28 (Base 50)    
Moisture  
Dew Point 66 °F    
Average Humidity 73    
Maximum Humidity 89    
Minimum Humidity 43    
Precipitation  
Precipitation 0.00 in - - ()
Sea Level Pressure  
Sea Level Pressure 30.05 in    
Wind  
Wind Speed 10 mph (WSW)    
Max Wind Speed 14 mph    
Max Gust Speed 24 mph    
Visibility 10 miles    
Events Rain    
Averages and records for this station are not official NWS values.
T = Trace of Precipitation, MM = Missing Value Source: NWS Daily Summary

Daily Weather History Graph

Daily Weather History Graph

Search for Another Location

Airport or City:

Trip Planner

Search our weather history database for the weather conditions in past years. The results will help you decide how hot, cold, wet, or windy it might be!

Date:

Astronomy

Aug. 26, 2013 Rise Set
Actual Time 6:57 AM EDT 8:27 PM EDT
Civil Twilight 6:27 AM EDT 8:58 PM EDT
Nautical Twilight 5:50 AM EDT 9:34 PM EDT
Astronomical Twilight 5:11 AM EDT 10:13 PM EDT
Moon 11:22 PM EDT (8/26) 1:14 PM EDT (8/26)
Length of Visible Light 14h 30m
Length of Day
13h 30m
Waning Gibbous, 67% of the Moon is Illuminated
Aug 26
Waning Gibbous
Aug 28
Last Quarter
Sep 5
New
Sep 12
First Quarter
Sep 19
Full

Hourly Weather History & Observations

Time (EDT) Temp. Heat Index Dew Point Humidity Pressure Visibility Wind Dir Wind Speed Gust Speed Precip Events Conditions
12:14 AM 74.3 °F - 64.9 °F 72% 30.10 in 10.0 mi SW 11.5 mph - N/A   Clear
12:35 AM 74.3 °F - 65.1 °F 73% 30.09 in 10.0 mi SW 12.7 mph - N/A   Clear
12:55 AM 74.3 °F - 65.3 °F 73% 30.08 in 10.0 mi SW 13.8 mph 18.4 mph N/A   Clear
1:14 AM 74.3 °F - 65.3 °F 73% 30.08 in 10.0 mi SW 11.5 mph - N/A   Clear
1:35 AM 74.3 °F - 66.2 °F 76% 30.08 in 10.0 mi SW 11.5 mph - N/A   Clear
1:55 AM 74.3 °F - 66.7 °F 77% 30.08 in 10.0 mi SW 11.5 mph 16.1 mph N/A   Clear
2:14 AM 74.1 °F - 67.5 °F 80% 30.08 in 10.0 mi SW 9.2 mph - N/A   Clear
2:35 AM 72.9 °F - 67.1 °F 82% 30.08 in 10.0 mi SW 13.8 mph 18.4 mph N/A   Clear
2:55 AM 72.9 °F - 67.3 °F 83% 30.08 in 10.0 mi SW 12.7 mph - N/A   Clear
3:14 AM 72.9 °F - 67.5 °F 83% 30.08 in 10.0 mi SW 12.7 mph - N/A   Clear
3:35 AM 72.9 °F - 67.5 °F 83% 30.08 in 10.0 mi SW 10.4 mph - N/A   Clear
3:55 AM 72.9 °F - 67.5 °F 83% 30.08 in 10.0 mi SW 9.2 mph - N/A   Clear
4:14 AM 72.9 °F - 67.5 °F 83% 30.07 in 10.0 mi SW 9.2 mph - N/A   Clear
4:35 AM 72.1 °F - 66.9 °F 84% 30.07 in 10.0 mi SW 6.9 mph - N/A   Clear
4:55 AM 72.0 °F - 66.6 °F 83% 30.07 in 10.0 mi SW 12.7 mph - N/A   Clear
5:14 AM 71.8 °F - 66.4 °F 83% 30.08 in 10.0 mi SW 11.5 mph - N/A   Clear
5:35 AM 71.6 °F - 66.6 °F 84% 30.08 in 10.0 mi SW 10.4 mph - N/A   Clear
5:55 AM 71.6 °F - 66.2 °F 83% 30.07 in 10.0 mi SW 10.4 mph - N/A   Clear
6:14 AM 71.6 °F - 65.8 °F 82% 30.07 in 10.0 mi SW 9.2 mph - N/A   Scattered Clouds
6:35 AM 72.9 °F - 66.2 °F 80% 30.07 in 10.0 mi SW 11.5 mph - N/A   Scattered Clouds
6:55 AM 73.8 °F - 66.4 °F 78% 30.07 in 10.0 mi WSW 9.2 mph 16.1 mph N/A   Clear
7:15 AM 74.3 °F - 66.4 °F 76% 30.09 in 10.0 mi West 6.9 mph - N/A   Scattered Clouds
7:35 AM 74.3 °F - 66.6 °F 77% 30.08 in 10.0 mi WSW 6.9 mph - N/A Rain Rain
7:55 AM 71.6 °F - 65.5 °F 81% 30.08 in 10.0 mi WSW 8.1 mph - N/A   Scattered Clouds
8:15 AM 72.1 °F - 65.5 °F 79% 30.07 in 10.0 mi SW 9.2 mph - N/A   Clear
8:35 AM 71.6 °F - 65.3 °F 80% 30.10 in 10.0 mi West 10.4 mph - N/A Rain Light Rain
9:00 AM 71.6 °F - 66.2 °F 83% 30.11 in 5.0 mi WSW 8.1 mph 24.2 mph N/A Rain Heavy Rain
9:03 AM 71.6 °F - 67.3 °F 86% 30.10 in 5.0 mi SW 8.1 mph 18.4 mph N/A Rain Rain
9:14 AM 71.6 °F - 68.0 °F 88% 30.11 in 10.0 mi WSW 10.4 mph 17.3 mph N/A Rain Light Rain
9:35 AM 71.6 °F - 68.2 °F 89% 30.09 in 7.0 mi Calm Calm - N/A   Light Drizzle
9:55 AM 71.6 °F - 68.4 °F 89% 30.08 in 7.0 mi SSW 9.2 mph - N/A Rain Light Rain
10:14 AM 71.6 °F - 68.2 °F 89% 30.06 in 7.0 mi SW 8.1 mph - N/A   Scattered Clouds
10:35 AM 71.6 °F - 68.4 °F 89% 30.08 in 7.0 mi WSW 11.5 mph - N/A   Mostly Cloudy
10:55 AM 71.6 °F - 68.4 °F 89% 30.06 in 10.0 mi SW 11.5 mph - N/A Rain Light Rain
11:14 AM 71.6 °F - 68.4 °F 89% 30.05 in 7.0 mi WSW 8.1 mph - N/A Rain Rain
11:35 AM 71.6 °F - 68.2 °F 89% 30.03 in 10.0 mi SSW 11.5 mph - N/A   Light Drizzle
11:55 AM 71.6 °F - 68.0 °F 88% 30.02 in 10.0 mi SSW 12.7 mph - N/A   Mostly Cloudy
12:15 PM 71.6 °F - 67.6 °F 87% 30.06 in 10.0 mi WNW 6.9 mph - N/A   Mostly Cloudy
12:35 PM 75.9 °F - 70.5 °F 83% 30.06 in 10.0 mi WNW 6.9 mph - N/A   Mostly Cloudy
12:55 PM 76.6 °F - 70.0 °F 80% 30.06 in 10.0 mi West 5.8 mph - N/A   Mostly Cloudy
1:14 PM 78.3 °F - 69.8 °F 75% 30.06 in 10.0 mi WSW 5.8 mph - N/A   Scattered Clouds
1:35 PM 79.2 °F - 69.1 °F 71% 30.05 in 10.0 mi SW 6.9 mph - N/A   Clear
1:55 PM 81.7 °F 84.9 °F 69.1 °F 65% 30.04 in 10.0 mi WSW 9.2 mph - N/A   Clear
2:14 PM 81.7 °F 84.3 °F 67.6 °F 62% 30.04 in 10.0 mi WSW 8.1 mph - N/A   Clear
2:35 PM 84.9 °F 86.6 °F 64.9 °F 51% 30.03 in 10.0 mi SW 12.7 mph 16.1 mph N/A   Clear
2:55 PM 84.4 °F 86.1 °F 65.1 °F 52% 30.02 in 10.0 mi SSW 8.1 mph - N/A   Clear
3:14 PM 85.6 °F 87.1 °F 64.6 °F 49% 30.01 in 10.0 mi West 5.8 mph - N/A   Clear
3:35 PM 86.2 °F 87.3 °F 63.5 °F 47% 30.00 in 10.0 mi West 3.5 mph - N/A   Clear
3:55 PM 88.7 °F 90.8 °F 65.5 °F 46% 30.00 in 10.0 mi SW 9.2 mph - N/A   Clear
4:15 PM 89.6 °F 91.1 °F 64.4 °F 43% 30.00 in 10.0 mi WSW 12.7 mph 16.1 mph N/A   Clear
4:35 PM 89.6 °F 91.1 °F 64.2 °F 43% 30.00 in 10.0 mi West 10.4 mph 16.1 mph N/A   Clear
4:55 PM 86.0 °F 87.1 °F 63.5 °F 47% 30.01 in 10.0 mi West 12.7 mph 17.3 mph N/A   Clear
5:15 PM 86.0 °F 86.3 °F 61.9 °F 44% 30.00 in 10.0 mi WSW 13.8 mph 18.4 mph N/A   Clear
5:35 PM 85.8 °F 86.1 °F 61.5 °F 44% 30.00 in 10.0 mi West 9.2 mph - N/A   Clear
5:55 PM 85.8 °F 86.1 °F 61.3 °F 44% 30.00 in 10.0 mi WSW 10.4 mph 16.1 mph N/A   Clear
6:15 PM 84.4 °F 84.8 °F 61.3 °F 46% 30.01 in 10.0 mi West 12.7 mph 18.4 mph N/A   Clear
6:35 PM 83.7 °F 84.3 °F 62.2 °F 48% 30.02 in 10.0 mi West 10.4 mph - N/A   Clear
6:54 PM 83.3 °F 84.3 °F 63.1 °F 50% 30.01 in 10.0 mi West 11.5 mph - N/A   Clear
7:15 PM 81.7 °F 83.0 °F 63.5 °F 54% 30.01 in 10.0 mi West 9.2 mph - N/A   Clear
7:35 PM 81.7 °F 83.3 °F 64.6 °F 56% 30.01 in 10.0 mi WSW 10.4 mph - N/A   Clear
7:54 PM 79.2 °F - 63.5 °F 59% 30.00 in 10.0 mi WSW 6.9 mph - N/A   Clear
8:15 PM 77.9 °F - 64.6 °F 63% 30.01 in 10.0 mi WSW 5.8 mph - N/A   Clear
8:35 PM 76.6 °F - 64.2 °F 65% 30.00 in 10.0 mi Calm Calm - N/A   Clear
8:54 PM 76.6 °F - 64.8 °F 67% 30.00 in 10.0 mi Calm Calm - N/A   Clear
9:15 PM 76.3 °F - 66.0 °F 70% 30.00 in 10.0 mi West 3.5 mph - N/A   Clear
9:35 PM 71.6 °F - 65.5 °F 81% 30.00 in 10.0 mi Calm Calm - N/A   Clear
9:54 PM 71.6 °F - 65.5 °F 81% 30.00 in 10.0 mi WSW 3.5 mph - N/A   Clear
10:15 PM 71.6 °F - 66.0 °F 82% 30.00 in 10.0 mi Calm Calm - N/A   Clear
10:35 PM 70.5 °F - 65.7 °F 85% 30.00 in 10.0 mi Calm Calm - N/A   Clear
10:54 PM 69.1 °F - 64.8 °F 86% 30.00 in 10.0 mi Calm Calm - N/A   Clear
11:15 PM 68.7 °F - 64.6 °F 87% 30.01 in 10.0 mi Calm Calm - N/A   Clear
11:35 PM 67.1 °F - 63.3 °F 88% 30.00 in 10.0 mi Calm Calm - N/A   Clear
11:55 PM 66.6 °F - 62.8 °F 88% 29.98 in 10.0 mi Calm Calm - N/A   Clear